This demonstration page uses our WeatherBlox Daily Observations layout. Learn more.

Left ArrowRight Arrow

31.84235, -102.49876

Hourly Observations for May 23, 2021

Temp ( °F °C ) Dew Point ( °F °C ) Humidity (%) Winds ( mph kmh ) Pressure ( in mb ) Visibility ( mi km ) Precip ( " mm )
12:43 am 00:43 Mostly Cloudy 69 20.6 63 17.2 81 81 E 13 20 30.00 1016 10 16 0.00 0.00
12:53 am 00:53 Cloudy 69 20.6 63 17.2 81 81 ESE 16 26 30.00 1016 10 16 0.00 0.00
1:53 am 01:53 Mostly Cloudy 68 20 62 16.7 81 81 E 14 22 29.99 1016 10 16 0.00 0.00
2:53 am 02:53 Cloudy 69 20.6 63 17.2 81 81 ESE 14 22 29.96 1015 10 16 0.00 0.00
3:21 am 03:21 Cloudy 69 20.6 63 17.2 81 81 SE 9 15 29.97 1015 10 16 0.00 0.00
3:53 am 03:53 Cloudy 69 20.6 64 17.8 84 84 SSE 10 17 29.97 1015 10 16 0.00 0.00
4:36 am 04:36 Cloudy 69 20.6 64 17.8 84 84 SE 13 20 29.94 1014 10 16 0.00 0.00
4:53 am 04:53 Mostly Cloudy 68 20 64 17.8 87 87 SE 16 26 29.92 1013 10 16 0.00 0.00
5:53 am 05:53 Partly Cloudy 69 20.6 64 17.8 84 84 SSE 16 26 29.91 1013 10 16 0.00 0.00
6:30 am 06:30 Cloudy 70 21.1 62 16.7 76 76 S 17 28 29.95 1014 10 16 0.00 0.00
6:44 am 06:44 Cloudy 70 21.1 62 16.7 76 76 S 22 35 29.95 1014 10 16 0.00 0.00
6:53 am 06:53 Cloudy 70 21.1 62 16.7 76 76 SSE 17 28 29.94 1014 10 16 0.00 0.00
7:42 am 07:42 Mostly Cloudy 70 21.1 62 16.7 76 76 SSE 14 22 29.97 1015 10 16 0.00 0.00
7:53 am 07:53 Cloudy 70 21.1 62 16.7 76 76 SSE 14 22 29.97 1015 10 16 0.00 0.00
8:53 am 08:53 Cloudy 69 20.6 62 16.7 78 78 SSE 23 37 29.98 1015 10 16 0.00 0.00
9:53 am 09:53 Cloudy 70 21.1 62 16.7 76 76 SSE 17 28 29.99 1016 10 16 0.00 0.00
10:53 am 10:53 Cloudy 72 22.2 62 16.7 71 71 S 20 31 29.98 1015 10 16 0.00 0.00
11:53 am 11:53 Cloudy 75 23.9 62 16.7 64 64 SSE 22 35 29.98 1015 10 16 0.00 0.00
12:05 pm 12:05 Cloudy 75 23.9 62 16.7 64 64 SSE 22 35 29.94 1014 10 16 0.00 0.00
12:51 pm 12:51 Mostly Cloudy 75 24 61 16 61 61 SSE 18 30 29.93 1013 10 16 0.00 0.00
12:53 pm 12:53 Mostly Cloudy 77 25 61 16.1 58 58 SSE 15 24 29.96 1015 10 16 0.00 0.00
1:17 pm 13:17 Cloudy 78 25.6 61 16.1 56 56 SSE 18 30 29.90 1013 10 16 0.00 0.00
1:53 pm 13:53 Cloudy 79 26.1 61 16.1 54 54 SSE 18 30 29.94 1014 10 16 0.00 0.00
2:53 pm 14:53 Mostly Cloudy 82 27.8 60 15.6 47 47 SSE 18 30 29.91 1013 10 16 0.00 0.00
3:53 pm 15:53 Partly Cloudy 85 29.4 60 15.6 43 43 SSE 18 30 29.88 1012 10 16 0.00 0.00
4:53 pm 16:53 Mostly Sunny 85 29.4 59 15 42 42 SE 22 35 29.86 1011 10 16 0.00 0.00
5:53 pm 17:53 Partly Cloudy 84 28.9 58 14.4 41 41 SE 20 31 29.85 1011 10 16 0.00 0.00
6:53 pm 18:53 Sunny 82 27.8 57 13.9 42 42 SE 18 30 29.84 1010 10 16 0.00 0.00
7:53 pm 19:53 Mostly Sunny 81 27.2 57 13.9 44 44 SE 22 35 29.86 1011 10 16 0.00 0.00
8:53 pm 20:53 Clear 79 26.1 57 13.9 47 47 SE 16 26 29.87 1012 10 16 0.00 0.00
9:53 pm 21:53 Clear 78 25.6 57 13.9 48 48 SE 22 35 29.87 1012 10 16 0.00 0.00
10:53 pm 22:53 Clear 77 25 57 13.9 50 50 SSE 16 26 29.89 1012 10 16 0.00 0.00
11:53 pm 23:53 Clear 75 23.9 57 13.9 54 54 SSE 22 35 29.91 1013 10 16 0.00 0.00

Powered by AerisWeather